www.pogodaiklimat.ru
Время
(UTC), дата
05 28.07
04 28.07
06 28.07
07 28.07
08 28.07
09 28.07
11 28.07
10 28.07
12 28.07
13 28.07
14 28.07
15 28.07
17 28.07
16 28.07
18 28.07
19 28.07
20 28.07
21 28.07
23 28.07
22 28.07
00 29.07
01 29.07
03 29.07
04 29.07
05 29.07
06 29.07
07 29.07
08 29.07
09 29.07
10 29.07
11 29.07
12 29.07
13 29.07
14 29.07
15 29.07
16 29.07
17 29.07
18 29.07
19 29.07
20 29.07
21 29.07
22 29.07
23 29.07
00 30.07
01 30.07
02 30.07
03 30.07
04 30.07
05 30.07
06 30.07
07 30.07
08 30.07
09 30.07
10 30.07
11 30.07
12 30.07
13 30.07
14 30.07
15 30.07
16 30.07
17 30.07
18 30.07
19 30.07
20 30.07
21 30.07
22 30.07
23 30.07
00 31.07
01 31.07
02 31.07
03 31.07
04 31.07
05 31.07
06 31.07
07 31.07
08 31.07
09 31.07
10 31.07
11 31.07
12 31.07
13 31.07
14 31.07
15 31.07
16 31.07
17 31.07
18 31.07
19 31.07
20 31.07
21 31.07
22 31.07
23 31.07
00 1.08
01 1.08
02 1.08
03 1.08
04 1.08
05 1.08
06 1.08
07 1.08
08 1.08
09 1.08
10 1.08
11 1.08
12 1.08
13 1.08
14 1.08
15 1.08
16 1.08
17 1.08
18 1.08
19 1.08
20 1.08
21 1.08
22 1.08
23 1.08
00 2.08
01 2.08
02 2.08
03 2.08
04 2.08
05 2.08
06 2.08
07 2.08
08 2.08
09 2.08
10 2.08
11 2.08
12 2.08
13 2.08
14 2.08
15 2.08
16 2.08
17 2.08
18 2.08
19 2.08
20 2.08
21 2.08
22 2.08
23 2.08
00 3.08
01 3.08
02 3.08
03 3.08
04 3.08
05 3.08
06 3.08
07 3.08
08 3.08
09 3.08
10 3.08
11 3.08
12 3.08
13 3.08
14 3.08
15 3.08
16 3.08
17 3.08
18 3.08
19 3.08
21 3.08
22 3.08
23 3.08
00 4.08
02 4.08
01 4.08
Ветер
(напр.,м/с)
Видим. Явления Облачность Т
(С)
Тd
(С)
f
(%)
Тe
(С)
Тes
(С)
Комфортность P
(гПа)
Po
(гПа)
Тmin
(С)
Tmax
(С)
R
(мм)
R24
(мм)
S
(см)
ЮЗ 4 60 км 9/0
[Ac und Ci sp]
+22.0 +13.9 60 +25 +25 комфорт 1007.6 992.0
Ю 5 60 км 9/0
[Ac As Ci sp]
+21.6 +13.6 60 +24 +24 комфорт 1007.4 991.8
ЮЗ 4 60 км 9/0
[Ac und]
+22.9 +14.4 59 +27 +27 душно 1007.9 992.4 +21.0 +24.1 0.0
З 7 60 км 9/0
[Ac trans]
+26.1 +14.7 49 +29 +29 жарко 1008.2 992.8
З 6 60 км 9/0
[Ac trans]
+26.2 +12.0 41 +28 +29 жарко 1008.5 993.1
З 8 60 км 9/0
[Ac trans]
+26.3 +12.8 43 +28 +29 жарко 1009.0 993.6
З 7 60 км 9/4 1500 м
[Cu med, cong Ac trans]
+27.5 +13.1 41 +29 +30 жарко 1009.1 993.8
З 7 60 км 9/3 1500 м
[Cu hum Ac trans]
+26.7 +13.0 43 +28 +30 жарко 1009.3 994.0
З 8 60 км 9/4 1500 м
[Cu med, cong Ac trans Ci sp]
+27.6 +13.1 41 +29 +30 жарко 1009.4 994.1
З 9 60 км 8/5 1500 м
[Cu med, cong Ac trans]
+27.6 +12.1 38 +29 +29 жарко 1009.6 994.3
З 8 60 км 8/5 1500 м
[Cu med, cong Ci sp]
+27.5 +10.0 33 +28 +29 жарко 1009.6 994.3
З 6 60 км 9/4 1500 м
[Cu med, cong Ac und]
+27.0 +10.7 36 +28 +28 жарко 1009.9 994.5
СЗ 5 60 км 9/1 1500 м
[Cu hum Ac trans]
+26.7 +10.0 35 +27 +28 жарко 1010.1 994.7
З 6 60 км 9/4 1500 м
[Cu med, cong Ac und]
+26.7 +10.1 35 +27 +28 жарко 1010.0 994.6
С 4 50 км 8/1 2000 м
[Cu med, cong Ac trans Cs]
+25.0 +11.8 44 +27 +27 жарко 1010.7 995.2 +23.0 +28.8
СЗ 6 55 км 6/4 2000 м
[Cu med, cong Ac trans Ci sp]
+22.3 +12.2 53 +25 +25 комфорт 1011.7 996.1
С 5 55 км 8/8 2000 м
[Sc diur, vesp]
+20.9 +10.9 53 +23 +23 комфорт 1012.8 997.1
С 3 60 км 9/9 2000 м
[Sc diur, vesp]
+20.3 +10.7 54 +22 +22 комфорт 1013.9 998.1
З 2 60 км 8/8 1500 м
[Sc]
+18.4 +9.5 56 +19 +19 тепло 1015.2 999.3
СЗ 2 60 км 9/9 1500 м
[Sc]
+19.6 +9.6 52 +21 +21 комфорт 1014.7 998.9
СЗ 2 60 км 9/9 1500 м
[Sc]
+17.9 +9.3 57 +18 +18 тепло 1016.0 1000.1
З 1 60 км 8/8 1500 м
[Sc]
+16.7 +9.6 63 +18 +18 тепло 1016.1 1000.1
ЮЗ 2 60 км 3/0
[Ac trans]
+15.0 +9.6 70 +15 +15 тепло 1016.6 1000.5
З 3 55 км 6/6 1500 м
[Sc]
+13.8 +9.8 77 +13 +13 тепло 1017.3 1001.1
З 2 55 км 6/6 1500 м
[Sc]
+14.9 +10.5 75 +15 +15 тепло 1017.6 1001.5
З 5 60 км 8/8 1500 м
[Sc]
+16.2 +10.0 67 +15 +16 тепло 1018.1 1002.0 +13.3 +25.0
З 6 60 км 6/6 1500 м
[Cu Sc]
+18.0 +7.4 50 +17 +18 тепло 1018.4 1002.4
З 8 60 км 5/5 1500 м
[Cu Sc]
+19.5 +6.8 44 +20 +20 тепло 1018.5 1002.6
З 7 65 км 5/5 1500 м
[Cu Sc]
+21.3 +6.7 39 +22 +24 комфорт 1018.6 1002.8
З 8 65 км 5/5 1500 м
[Cu hum]
+20.4 +7.3 43 +21 +22 комфорт 1018.4 1002.6
З 9 65 км 4/4 1500 м
[Cu hum]
+22.1 +5.7 34 +23 +24 комфорт 1018.5 1002.7
З 8 65 км 3/3 1500 м
[Cu hum]
+23.6 +6.1 32 +24 +26 комфорт 1018.4 1002.7
З 7 60 км 3/3 1500 м
[Cu hum]
+23.8 +6.5 33 +24 +27 комфорт 1018.2 1002.5
З 6 60 км 3/3 1500 м
[Cu hum]
+24.8 +6.8 32 +25 +28 комфорт 1018.0 1002.4
ЮЗ 3 60 км 6/3 1500 м
[Cu hum Ci]
+24.0 +6.7 33 +24 +28 комфорт 1017.8 1002.2
З 4 60 км 6/1 1500 м
[Cu hum Ci]
+23.7 +6.6 33 +24 +26 комфорт 1017.8 1002.1
З 5 60 км 5/1 1500 м
[Cu hum Ci sp]
+23.5 +6.3 33 +24 +24 комфорт 1017.9 1002.2
СЗ 3 60 км 3/1 1500 м
[Cu hum Ci sp]
+22.9 +6.5 35 +24 +24 комфорт 1018.0 1002.3 +16.0 +25.2
С 4 60 км 4/0
[Ci]
+20.5 +7.0 42 +22 +22 комфорт 1018.5 1002.7
С 3 60 км 4/0
[Ci sp]
+18.4 +7.0 47 +19 +19 тепло 1019.0 1003.0
С 2 60 км 4/0
[Ci sp]
+17.0 +7.2 52 +17 +17 тепло 1019.5 1003.5
СЗ 2 60 км 3/0
[Ci sp]
+15.8 +7.1 56 +16 +16 тепло 1020.1 1004.0
штиль 0 60 км 3/0
[Ci fib]
+14.1 +7.1 63 +14 +14 тепло 1020.5 1004.3
З 1 60 км 3/0
[Ci fib]
+13.7 +7.1 64 +14 +14 прохладно 1020.4 1004.2
З 2 60 км 5/0
[Ci]
+13.6 +7.2 65 +13 +13 прохладно 1020.7 1004.4
З 2 60 км 8/0
[Ci]
+12.8 +7.7 71 +12 +12 прохладно 1021.0 1004.7
З 1 55 км 8/0
[Ac und Ci fib]
+11.9 +7.6 75 +12 +12 холодно 1021.3 1004.9
З 1 50 км 8/0
[Ac trans Ci fib]
+12.0 +7.8 75 +12 +12 прохладно 1021.5 1005.1
З 1 55 км 8/0
[Ac und Ci fib]
+12.5 +8.9 79 +13 +13 прохладно 1021.6 1005.3
СЗ 1 60 км 5/0
[Ac trans Ci sp]
+14.9 +7.6 62 +16 +18 по сезону 1021.7 1005.5 +11.5 +22.8
СЗ 2 60 км 3/0
[Ac trans Ci fib]
+17.4 +8.2 55 +18 +23 тепло 1022.1 1006.0
СЗ 2 60 км 3/0
[Ac trans Ci fib]
+18.5 +8.0 50 +19 +27 тепло 1021.9 1005.9
СЗ 2 60 км 4/0
[Ci]
+20.4 +8.3 46 +22 +33 комфорт 1021.8 1005.9
З 3 60 км 6/0
[Ci]
+21.2 +7.6 41 +22 +33 комфорт 1021.4 1005.6
З 3 65 км 8/0
[Ci]
+22.6 +6.6 36 +23 +34 комфорт 1021.2 1005.4
СЗ 2 60 км 8/1 2000 м
[Cu hum Ci sp]
+23.9 +6.0 32 +24 +35 комфорт 1020.5 1004.8
ЮЗ 2 60 км 6/0
[Ac trans Ci sp]
+25.3 +7.1 31 +25 +36 комфорт 1020.0 1004.4
З 3 60 км 6/0
[Ac und Ci sp]
+26.4 +6.8 29 +26 +32 жарко 1019.2 1003.7
СЗ 4 60 км 5/0
[Ac trans Ci sp]
+26.1 +4.3 25 +25 +29 комфорт 1019.0 1003.4
З 4 60 км 5/0
[Ac trans Ci sp]
+26.9 +6.3 27 +26 +28 жарко 1018.5 1003.0
СВ 4 60 км 4/0
[Ac und Ci fib]
+24.4 +7.4 34 +25 +25 комфорт 1018.5 1002.9
С 3 60 км 3/0
[Ac trans Ci fib]
+24.0 +6.5 32 +24 +24 комфорт 1018.4 1002.7 +14.8 +27.4
С 3 65 км 3/0
[Ac trans Ci fib]
+22.1 +6.3 36 +23 +23 комфорт 1018.7 1002.9
С 1 65 км 3/0
[Ci]
+19.6 +6.5 42 +21 +21 комфорт 1019.1 1003.2
С 2 65 км 3/0
[Ci fib]
+17.7 +6.7 48 +18 +18 прохладно 1019.5 1003.5
С 2 60 км 3/0
[Ci fib]
+16.8 +7.0 52 +17 +17 прохладно 1019.9 1003.8
С 2 60 км 3/0
[Ci fib]
+16.2 +6.9 54 +16 +16 холодно 1019.9 1003.8
С 2 60 км 3/0
[Ci fib]
+14.7 +6.8 59 +15 +15 по сезону 1020.1 1003.9
С 2 60 км 3/0
[Ci fib]
+14.8 +6.8 59 +15 +15 по сезону 1020.1 1003.9
С 2 60 км 3/0
[Ci fib]
+14.3 +6.7 60 +14 +14 по сезону 1020.4 1004.2
С 2 60 км 3/0
[Ci fib]
+13.2 +7.0 66 +13 +13 прохладно 1020.2 1003.9
С 1 60 км 1/0
[Ac trans]
+12.3 +7.2 71 +12 +13 прохладно 1020.1 1003.8
С 1 60 км 1/0
[Ac trans]
+14.4 +8.0 65 +15 +16 по сезону 1020.3 1004.1
В 2 50 км 1/0
[Ci]
+18.5 +8.5 52 +19 +22 тепло 1020.0 1004.0 +12.1 +24.0
В 2 60 км 1/0
[Ci fib]
+20.0 +8.4 47 +22 +27 комфорт 1020.0 1004.1
СВ 2 60 км 1/0
[Ci fib]
+22.1 +7.5 39 +23 +32 комфорт 1019.7 1003.9
З 1 60 км 3/0
[Ci]
+22.3 +7.5 38 +23 +36 комфорт 1019.7 1003.9
З 2 60 км 3/0
[Ci fib]
+23.8 +7.8 36 +24 +38 комфорт 1019.4 1003.7
Ю 1 60 км 4/0
[Ac und Ci fib]
+25.0 +8.3 35 +25 +41 комфорт 1018.8 1003.2
З 2 70 км 5/0
[Ac trans Ci]
+25.6 +8.8 34 +26 +39 жарко 1018.4 1002.8 0.0
СЗ 2 70 км 5/0
[Ac trans Ci fib]
+26.5 +9.2 34 +27 +38 жарко 1017.9 1002.4
СВ 2 70 км 5/0
[Ci]
+26.5 +9.4 34 +27 +36 жарко 1017.6 1002.1
С 3 70 км 4/0
[Ac und Ci fib]
+27.4 +10.0 34 +28 +33 жарко 1017.3 1001.8
В 3 70 км 3/0
[Ac trans Ci fib]
+27.5 +10.3 34 +28 +31 жарко 1017.0 1001.6
СВ 2 60 км 1/0
[Ci fib]
+26.9 +10.2 35 +27 +29 жарко 1016.8 1001.3
СВ 2 60 км 1/0
[Ci fib]
+26.3 +10.9 38 +27 +28 жарко 1016.6 1001.1 +18.3 +28.0
СВ 1 60 км 1/0
[Ac und Ci fib]
+23.6 +11.4 46 +25 +25 комфорт 1016.7 1001.1
СВ 2 60 км 1/0
[Ac lent Ci fib]
+22.2 +12.3 53 +25 +25 комфорт 1017.1 1001.4
В 3 60 км 1/0
[Ci fib]
+21.6 +11.6 53 +24 +24 комфорт 1017.2 1001.5
В 3 55 км 1/0
[Ci fib]
+20.5 +10.9 54 +23 +23 комфорт 1017.4 1001.6
В 3 55 км 1/0
[Ci fib]
+18.2 +10.1 59 +19 +19 по сезону 1017.5 1001.6
В 3 55 км 1/0
[Ci fib]
+18.0 +9.9 59 +18 +18 тепло 1017.3 1001.4
В 3-3
{3}
60 км ясно +17.8 +10.0 60 +18 +18 тепло 1016.9 1001.0
В 2-3
{4}
60 км ясно +17.4 +9.7 61 +18 +18 тепло 1016.7 1000.7
В 2 60 км ясно +16.2 +9.9 66 +16 +16 по сезону 1016.5 1000.5
В 3-3
{4}
60 км ясно +14.9 +8.8 67 +14 +14 по сезону 1016.3 1000.2
В 2-3
{4}
60 км ясно +16.8 +9.5 62 +17 +18 тепло 1016.4 1000.4
В 3 60 км ясно +20.3 +9.6 50 +22 +24 комфорт 1016.0 1000.2 +14.7 +26.3
В 4 50 км 3/0
[Ci]
+22.5 +10.3 46 +24 +28 комфорт 1015.3 999.6
ЮВ 3 50 км 4/0
[Ci]
+25.0 +10.7 41 +26 +33 жарко 1015.2 999.7
В 3 60 км 4/0
[Ci fib]
+26.9 +10.8 37 +28 +37 жарко 1015.1 999.7
ЮВ 3 70 км 4/0
[Ac trans Ci fib]
+28.5 +10.7 33 +29 +39 жарко 1014.9 999.5
ЮВ 3 60 км 5/0
[Ci]
+29.9 +10.6 30 +30 +41 жарко 1014.3 999.0
ЮВ 2 60 км 6/0
[Ac und Ci fib]
+30.5 +10.3 29 +30 +43 жарко 1013.9 998.7
В 3 70 км 6/0
[Ac trans Ci sp]
+31.3 +10.0 27 +31 +40 жарко 1013.3 998.1
В 2 70 км 5/0
[Ci sp]
+32.2 +9.9 25 +32 +41 жарко 1012.7 997.6
С 3 70 км 6/0
[Ac trans Ci]
+32.0 +9.6 25 +31 +36 жарко 1012.5 997.3
СВ 3 70 км 8/0
[Ac und Ci]
+32.1 +9.8 25 +31 +34 жарко 1012.2 997.1
СВ 3 70 км 8/0
[Ac lent Ci]
+31.3 +8.6 24 +30 +31 жарко 1011.9 996.7
СВ 3 65 км 8/0
[Ac lent Ci sp]
+30.1 +8.8 27 +30 +30 жарко 1011.9 996.7 +20.4 +32.7
СВ 1 65 км 6/0
[Ac und Ci sp]
+26.8 +9.4 33 +27 +27 жарко 1012.3 996.9
СЗ 3 50 км 9/0
[Ac und Ci sp]
+25.4 +14.3 50 +28 +28 жарко 1013.0 997.5
С 3 50 км 10/3 1200 м
[Sc Ac und]
+24.5 +14.8 55 +27 +27 жарко 1013.0 997.5
ЮВ 4 30 км слаб. дождь 10/3 900 м
[Sc As op]
+22.2 +17.5 75 +27 +27 душно 1013.0 997.4
СЗ 1 45 км в посл. час дождь 10/0
[Ac As]
+22.2 +15.4 65 +26 +26 душно 1012.6 997.0
СЗ 1 45 км {дождь} 10/0
[Ac As]
+21.8 +15.6 68 +25 +25 комфорт 1012.4 996.8 0.0
СЗ 2 45 км 9/0
[Ac As Cs]
+20.8 +15.5 72 +25 +25 комфорт 1012.2 996.5
СЗ 1 45 км 8/0
[Ac As Cs]
+20.1 +15.4 74 +24 +24 комфорт 1012.0 996.3
С 1 40 км 8/0
[Ac As Cs]
+19.0 +15.4 80 +21 +21 комфорт 1011.8 996.0
С 1 35 км 8/0
[Ac As Cc]
+18.2 +15.4 84 +20 +20 тепло 1011.8 996.0
С 1 30 км 10/0
[Ac und Cs]
+19.1 +15.8 81 +22 +22 комфорт 1011.7 995.9
СЗ 3 30 км 9/0
[Ac cast]
+19.9 +15.8 77 +23 +23 комфорт 1011.8 996.1 +18.1 +30.0 0.0
СЗ 4 35 км 9/0
[Ac cast Cs]
+22.1 +16.0 68 +26 +28 душно 1011.7 996.1
С 6 25 км осадки на расстоянии 9/4 300 м
[Cu med, cong Ac und]
+20.6 +16.8 79 +24 +25 комфорт 1012.6 996.9
С 6 35 км осадки на расстоянии 9/1 300 м
[Cu med, cong Ac und]
+21.2 +16.8 76 +25 +26 комфорт 1012.8 997.1
С 5 40 км в посл. час ливневой дождь 10/1 750 м
[Cb cap Ac As]
+20.3 +17.1 82 +23 +25 комфорт 1012.6 996.9
СЗ 2 27 км в посл. час ливневой дождь 10/5 300 м
[Cb cap Ac As]
+19.5 +17.3 87 +22 +25 комфорт 1013.4 997.6
СЗ 2 40 км {ливн. дождь} 10/5 300 м
[Cu med, cong Ac As]
+20.8 +17.3 80 +25 +27 комфорт 1013.0 997.3 0.4
СЗ 3 40 км 10/8 480 м
[Cu med, cong Ac As]
+21.4 +17.5 78 +25 +26 комфорт 1012.9 997.3
С 3 22 км осадки на расстоянии 10/8 480 м
[Cb cap Ac As]
+20.7 +16.8 78 +25 +25 комфорт 1012.9 997.2
З 1 18 км слаб. дождь 10/3 1080 м
[Cu med, cong Ac As]
+19.7 +17.3 86 +23 +25 комфорт 1012.6 996.9 1
СЗ 2 6000 м слаб. дождь 10/9 210 м
[Frnb]
+19.3 +18.2 93 +22 +22 комфорт 1013.1 997.3
С 2 10 км в посл. час дождь 9/5 180 м
[Cu Sc Ac As]
+19.4 +17.6 89 +22 +22 комфорт 1012.8 997.1
С 2 12 км осадки на расстоянии {ливн. дождь} 10/10 100 м
[Cb calv]
+19.5 +17.8 90 +22 +22 комфорт 1012.6 996.9 +19.0 +22.1 3
СЗ 2 6000 м слаб. ливневой дождь 10/10 270 м
[Cb calv]
+17.2 +15.8 91 +18 +18 прохладно 1013.1 997.2
В 1 20 км слаб. ливневой дождь 10/10 450 м
[Cb calv]
+16.9 +15.9 94 +18 +18 прохладно 1013.3 997.4
С 1 40 км в посл. час ливневой дождь 9/9 2000 м
[Sc]
+16.6 +15.7 94 +17 +17 прохладно 1013.1 997.2 6
Ю 1 30 км 8/8 2000 м
[Sc]
+16.1 +15.6 97 +17 +17 прохладно 1013.2 997.3
З 3 10 км местами туман поземный 6/1 2000 м
[Sc Ac und]
+16.0 +15.6 97 +15 +15 холодно 1013.5 997.5
СЗ 2 10 км местами туман поземный {ливн. дождь} 5/0
[As trans]
+16.1 +15.4 96 +16 +16 по сезону 1012.9 997.0 6
СЗ 4 12 км 10/10 180 м
[St]
+16.5 +15.7 95 +16 +16 по сезону 1013.1 997.2
С 3 25 км 9/9 570 м
[Sc]
+16.3 +14.5 89 +16 +16 тепло 1012.9 997.0
С 3 40 км 8/8 720 м
[Sc]
+15.3 +13.2 87 +15 +15 по сезону 1013.0 997.0
С 2 30 км 9/6 900 м
[Sc Ac und]
+14.7 +13.2 91 +14 +14 по сезону 1012.9 996.9
СЗ 2 35 км 8/3 1500 м
[Sc Ac trans Ci]
+14.4 +13.0 91 +14 +14 по сезону 1013.2 997.1
СЗ 3 35 км 9/3 300 м
[Cu Sc Ac As]
+14.6 +12.9 90 +14 +14 по сезону 1013.6 997.5 +14.3 +19.5 6
С 4 35 км 9/1 480 м
[Cu hum Ac As]
+14.9 +12.6 86 +14 +15 по сезону 1013.6 997.6
СЗ 3 35 км 9/3 360 м
[Cu hum Ac As]
+15.3 +12.4 83 +15 +17 по сезону 1013.4 997.4
СЗ 4 40 км 9/3 300 м
[Cu hum Ac As Ci sp]
+17.2 +11.6 70 +17 +20 прохладно 1013.2 997.3
С 5 45 км 8/4 800 м
[Cu hum Ac trans Ci fib]
+18.0 +11.0 64 +18 +21 прохладно 1012.9 997.0
С 4 50 км 9/3 840 м
[Cu hum Ac und Ci fib]
+19.6 +10.2 55 +21 +25 комфорт 1012.5 996.7
СЗ 4 50 км 9/3 1000 м
[Cu hum Ac und]
+20.8 +9.5 48 +23 +25 комфорт 1012.0 996.3
СЗ 5 50 км 9/3 1200 м
[Cu hum Ac As Ci sp]
+20.6 +9.7 50 +22 +25 комфорт 1011.6 995.9
СЗ 4 50 км 9/3 1380 м
[Cu hum Ac trans Ci sp]
+21.5 +9.3 46 +23 +26 комфорт 1011.2 995.5
С 4 50 км 9/4 1500 м
[Cu hum Ac trans Ci]
+21.9 +8.9 43 +23 +25 комфорт 1010.7 995.1
С 4 55 км 9/4 1500 м
[Cu hum Ac trans Ci sp]
+22.1 +9.3 44 +24 +24 комфорт 1010.6 995.0
С 4 60 км 9/3 1500 м
[Cu med, cong Ac und Ci sp]
+21.1 +7.6 42 +22 +22 комфорт 1010.4 994.7
С 3 70 км 6/3 1500 м
[Cu hum Ac trans Ci]
+20.6 +8.8 47 +22 +22 комфорт 1010.4 994.7 +14.6 +22.4
С 3 70 км 5/0
[Ac trans Ci fib]
+18.7 +8.4 51 +19 +19 прохладно 1010.4 994.6
С 2 70 км 5/0
[Ci sp]
+16.5 +9.1 62 +17 +17 прохладно 1011.1 995.2
СЗ 3 60 км 8/0
[Cs]
+15.7 +9.6 67 +15 +15 прохладно 1011.4 995.4
С 3 60 км 8/0
[Cs]
+15.5 +9.6 68 +15 +15 прохладно 1011.4 995.4
С 2 60 км 8/0
[Ci sp]
+14.6 +9.7 72 +14 +14 по сезону 1011.8 995.8
С 3 60 км 3/0
[Ci]
+13.2 +9.8 80 +12 +12 прохладно 1012.0 995.9
С 2-3
{3}
60 км ясно +13.9 +9.7 76 +13 +13 по сезону 1011.9 995.8
Местоположение метеостанции Лейпциг (Германия): широта 51.42 долгота 12.23 высота над уровнем моря 133 м.
В архиве по умолчанию представлена погода в Лейпциге за последнюю неделю. Архивные данные за месяц целиком и за предыдущие месяцы, начиная с января 2011 года, Вы можете получить, выбрав интересующий диапазон дат из раскрывающегося списка и нажав кнопку "Найти!".
*Определитесь, кто Вы:
Внимание! Время в таблицах - всемирное. Для получения местного времени необходимо прибавить поправку, которая равна 1 ч.
Смотрите также архив погоды в соседних городах и на ближайших метеорологических станциях:
Партнеры нашего сайта:      
Пояснения к столбцам:
  • Ветер - указаны скорость ветра в м/с - средняя за 10 мин, порывы в срок и между сроками (в фигурных скобках) и направление, откуда дует ветер: С - северный,
  • СВ - северо-восточный, В - восточный, ЮВ - юго-восточный, Ю - южный, ЮЗ - юго-западный, З - западный, СЗ - северо-западный.
  • Видимость - горизонтальная дальность видимости в метрах или километрах. При видимости от 1 до 10 км при отсутствии осадков обычно наблюдается дымка, при ухудшении видимости до 1 км и менее - туман. В сухую погоду видимость может ухудшаться дымом, пылью или мглою.
  • Явления - указаны атмосферные явления, наблюдавшиеся в срок или в последний час перед сроком; фигурными скобками обозначены явления, наблюдавшиеся между сроками (за 1-3 часа до срока); квадратными скобками обозначены град или гололедные отложения с указанием их диаметра в мм.
  • Облачность - указаны через наклонную черту общая и нижняя облачность в баллах и высота нижней границы облаков в метрах; квадратными скобками обозначены формы облаков: Ci - перистые, Cs - перисто-слоистые, Cc - перисто-кучевые, Ac - высококучевые, As - высокослоистые, Sc - слоисто-кучевые, Ns - слоисто-дождевые, Cu - кучевые, Cb - кучево-дождевые. Подробнее классификацию облаков см. в Атласе облаков (PDF).
  • T - Температура воздуха - температура, измеренная на высоте 2 м над землей.
  • Td - Температура точки росы - температура, при понижении до которой содержащийся в воздухе водяной пар достигнет насыщения.
  • f - Относительная влажность воздуха - влажноcть воздуха, измеренная на высоте 2 м над землей.
  • Te - Эффективная температура - температура, которую ощущает одетый по сезону человек в тени. Характеристика душности погоды. При расчете учитывается влияние влажности воздуха и скорости ветра на теплоощущения человека.
  • Tes - Эффективная температура на солнце - температура, которую ощущает человек, с поправкой на солнечный нагрев. Характеристика знойности погоды. Зависит от высоты солнца над горизонтом, облачности и скорости ветра. Ночью, в пасмурную погоду, а также при ветре 12 м/с и более поправка равна нулю.
  • P - Атмосферное давление - приведенное к уровню моря атмосферное давление.
  • Po - Атмосферное давление - измеренное на уровне метеостанции атмосферное давление.
  • Tmin - Минимальная температура - минимум температуры воздуха на высоте 2 м над землей.
  • Tmax - Максимальная температура - максимум температуры воздуха на высоте 2 м над землей.
  • R - Количество осадков - Количество выпавших осадков за период времени, мм. При наведении курсора мыши на число - период времени, за который выпало указанное количество осадков.
  • R24 - Количество осадков - Количество выпавших осадков за 24 часа, мм.
  • S - Снежный покров - Высота снежного покрова, см. При наведении курсора мыши на число - состояние снежного покрова и степень покрытия местности в баллах.